Kansas City, MO

4:41 PM CST on December 02, 2016 (GMT -0600)
Kansas City International

Weather History for KMCI - August, 2013

Change the Weather History Date:

Thursday, August 29, 2013

  Actual Average Record
Temperature  
Mean Temperature 84 °F 75 °F  
Max Temperature 96 °F 85 °F 109 °F (1984)
Min Temperature 72 °F 64 °F 49 °F (1893)
Degree Days  
Heating Degree Days 0 0  
Month to date heating degree days 0 0  
Since 1 June heating degree days 17 9  
Since 1 July heating degree days 0 0  
Cooling Degree Days 19 10  
Month to date cooling degree days 309 356  
Year to date cooling degree days 1057 1152  
Since 1 June cooling degree days 952 1036  
Growing Degree Days 34 (Base 50)    
Moisture  
Dew Point 68 °F    
Average Humidity 64    
Maximum Humidity 90    
Minimum Humidity 38    
Precipitation  
Precipitation 0.00 in 0.13 in 1.52 in (2014)
Month to date precipitation 2.12 3.61  
Year to date precipitation 22.67 27.12  
Snow  
Snow 0.00 in 0.00 in 0.00 in ()
Month to date snowfall 0.0 0.0  
Since 1 June snowfall 0.0 0.0  
Since 1 July snowfall 0.0 0.0  
Snow Depth 0.00 in    
Sea Level Pressure  
Sea Level Pressure 29.97 in    
Wind  
Wind Speed 8 mph (South)    
Max Wind Speed 16 mph    
Max Gust Speed 21 mph    
Visibility 10 miles    
Events      
T = Trace of Precipitation, MM = Missing Value Source: NWS Daily Summary

Daily Weather History Graph

Daily Weather History Graph

Search for Another Location

Airport or City:

Trip Planner

Search our weather history database for the weather conditions in past years. The results will help you decide how hot, cold, wet, or windy it might be!

Date:

Astronomy

Aug. 29, 2013 Rise Set
Actual Time 6:44 AM CDT 7:53 PM CDT
Civil Twilight 6:17 AM CDT 8:21 PM CDT
Nautical Twilight 5:44 AM CDT 8:54 PM CDT
Astronomical Twilight 5:09 AM CDT 9:28 PM CDT
Moon 12:38 AM CDT (8/29) 3:22 PM CDT (8/29)
Length of Visible Light 14h 04m
Length of Day
13h 08m
Last Quarter, 38% of the Moon is Illuminated
Aug 29
Last Quarter
Sep 5
New
Sep 12
First Quarter
Sep 19
Full
Sep 26
Last Quarter

Hourly Weather History & Observations

Time (CDT) Temp. Heat Index Dew Point Humidity Pressure Visibility Wind Dir Wind Speed Gust Speed Precip Events Conditions
12:53 AM 73.0 °F - 68.0 °F 84% 30.00 in 10.0 mi SSE 5.8 mph - N/A   Scattered Clouds
1:53 AM 73.0 °F - 66.9 °F 81% 30.00 in 10.0 mi SSE 5.8 mph - N/A   Scattered Clouds
2:53 AM 72.0 °F - 68.0 °F 87% 30.00 in 10.0 mi South 6.9 mph - N/A   Scattered Clouds
3:53 AM 73.0 °F - 68.0 °F 84% 30.00 in 10.0 mi South 5.8 mph - N/A   Scattered Clouds
4:53 AM 73.0 °F - 68.0 °F 84% 30.00 in 10.0 mi South 4.6 mph - N/A   Scattered Clouds
5:53 AM 72.0 °F - 68.0 °F 87% 30.00 in 10.0 mi South 5.8 mph - N/A   Scattered Clouds
6:53 AM 73.0 °F - 68.0 °F 84% 30.01 in 10.0 mi South 5.8 mph - N/A   Mostly Cloudy
7:53 AM 78.1 °F - 70.0 °F 76% 30.01 in 10.0 mi SSE 5.8 mph - N/A   Mostly Cloudy
8:53 AM 82.0 °F 85.5 °F 69.1 °F 65% 30.02 in 10.0 mi South 9.2 mph - N/A   Mostly Cloudy
9:53 AM 87.1 °F 92.8 °F 71.1 °F 59% 30.02 in 10.0 mi SSW 10.4 mph - N/A   Mostly Cloudy
10:53 AM 91.0 °F 95.6 °F 69.1 °F 48% 30.01 in 10.0 mi South 16.1 mph - N/A   Mostly Cloudy
11:53 AM 88.0 °F 92.1 °F 69.1 °F 53% 30.01 in 10.0 mi South 12.7 mph - N/A   Mostly Cloudy
12:53 PM 90.0 °F 93.6 °F 68.0 °F 48% 30.00 in 10.0 mi South 9.2 mph - N/A   Mostly Cloudy
1:53 PM 91.9 °F 95.9 °F 68.0 °F 45% 29.98 in 10.0 mi South 8.1 mph - N/A   Mostly Cloudy
2:53 PM 93.0 °F 96.4 °F 66.9 °F 42% 29.96 in 7.0 mi SSW 6.9 mph - N/A   Mostly Cloudy
3:53 PM 95.0 °F 99.0 °F 66.9 °F 40% 29.93 in 10.0 mi South 11.5 mph - N/A   Mostly Cloudy
4:53 PM 96.1 °F 99.3 °F 66.0 °F 37% 29.93 in 10.0 mi SSW 9.2 mph - N/A   Scattered Clouds
5:53 PM 93.9 °F 95.6 °F 64.0 °F 37% 29.92 in 10.0 mi South 11.5 mph - N/A   Scattered Clouds
6:53 PM 91.0 °F 94.3 °F 66.9 °F 45% 29.92 in 10.0 mi South 8.1 mph - N/A   Partly Cloudy
7:53 PM 82.9 °F 85.8 °F 68.0 °F 60% 29.92 in 10.0 mi South 8.1 mph - N/A   Partly Cloudy
8:53 PM 79.0 °F - 68.0 °F 69% 29.93 in 10.0 mi South 8.1 mph - N/A   Clear
9:53 PM 78.1 °F - 68.0 °F 71% 29.93 in 10.0 mi North - - N/A   Clear
10:53 PM 75.9 °F - 69.1 °F 79% 29.92 in 10.0 mi South 8.1 mph - N/A   Clear
11:53 PM 75.9 °F - 69.1 °F 79% 29.92 in 10.0 mi South 8.1 mph - N/A   Partly Cloudy